Location: Windsor
(43.2292°N, 89.3015°W)
Time: 10:31:07
(UTC+00:00)

BEESAT - Pass Details

Date: 01 July 2022
Orbit: 700 x 706 km, 98.6° (Epoch: 13 August)

Event Time Altitude Azimuth Distance (km) Brightness Sun altitude
Rises 03:45:35 0° 358° (N) 3,104 ? -16.7°
Reaches altitude 10° 03:48:31 10° 339° (NNW) 2,182 ? -17.0°
Maximum altitude 03:51:34 17° 299° (WNW) 1,736 ? -17.3°
Drops below altitude 10° 03:54:38 10° 258° (WSW) 2,175 ? -17.6°
Sets 03:57:33 0° 239° (WSW) 3,090 ? -17.8°
